www.pogodaiklimat.ru

Погода и климат >> Архив погоды >> Россия >> Хабаровский край >> Удинск


ПОГОДА в Удинске

  • Прогноз погоды в Удинске
  • Монитор погоды в Удинске

АРХИВ ПОГОДЫ в Удинске

Время (UTC), дата Ветер
(напр.,м/с)
 
Видим.   Явления Облачность Т
(С)
Тd
(С)
f
(%)
Тe
(С)
Тes
(С)
Комфортность P
(гПа)
Po
(гПа)
Тmin
(С)
Tmax
(С)
R
(мм)
R24
(мм)
S
(см)
06 20.03 В 2 50 км 3/3 600 м
[Sc]
-6.2 -20.3 32 -10 -7 1018.6 1016.6
09 20.03 СЗ 1 50 км 4/3 600 м
[Sc diur, vesp Ac lent]
-8.5 -17.6 48 -10 -10 1020.0 1018.1 -5.5
12 20.03 Ю 1 50 км 3/0
[Ci ing]
-20.7 -24.3 73 -24 -24 1022.3 1020.2
15 20.03 ЮЗ 1 н/о -25.5 -27.9 80 -29 -29 1022.7 540.2
18 20.03 ЮЗ 2 50 км 3/0
[Ci fib]
-28.7 -31.9 74 -36 -36 опасность
обморожения
1022.7 1020.6
21 20.03 ЮЗ 1 50 км 3/0
[Ci fib]
-31.4 -34.8 72 -36 -36 опасность
обморожения
1022.4 1020.2 -31.4 46
00 21.03 СЗ 1 50 км 3/0
[Ci fib]
-20.0 -23.8 72 -23 -18 1021.7 1019.7 -31.8
03 21.03 СВ 1 50 км 1/0
[Ac lent]
-10.1 -19.0 48 -12 -3 1019.1 1017.1
06 21.03 В 3 50 км 3/0
[Ac lent Ci fib]
-6.6 -20.2 33 -12 -9 1017.5 1015.5
09 21.03 В 2 50 км 3/0
[Ac lent Ci fib]
-10.2 -21.4 39 -14 -14 1017.0 1015.0 -6.4
15 21.03 штиль 0 50 км 10/0
[Cs]
-24.4 -26.9 80 -24 -24 1017.0 1014.9
21 21.03 ЮЗ 1 50 км 10/0
[Ac trans Cs]
-28.1 -31.0 76 -32 -32 опасность
обморожения
1016.0 1013.9 -28.4 46
03 22.03 СЗ 1 50 км 3/1 600 м
[Sc Ci fib]
-8.6 -19.7 40 -11 -2 1014.6 1012.6
12 22.03 Ю 2 50 км 3/0
[Ci fib]
-18.0 -23.3 63 -23 -23 1015.1 1013.1
15 22.03 ЮЗ 1 50 км ясно -26.0 -28.9 76 -30 -30 1014.5 1012.4
21 22.03 ЮЗ 1 50 км 3/0
[Ci fib]
-32.3 -35.9 70 -37 -37 опасность
обморожения
1013.0 1010.9 -32.3 46
00 23.03 С 1 50 км ясно -19.9 -25.0 64 -23 -17 1011.8 1009.8
03 23.03 С 1 50 км 1/1 600 м
[Sc]
-7.9 -19.6 38 -10 -0 1008.9 1006.9
09 23.03 З 1 50 км 1/0
[Ci fib]
-9.6 -22.3 35 -12 -12 1006.5 1004.5 -5.5
12 23.03 ЮЗ 1 50 км 1/0
[Ci fib]
-19.2 -24.8 61 -22 -22 1006.4 1004.4
21 23.03 ЮЗ 1 50 км 3/0
[Ci fib]
-31.1 -34.6 71 -35 -35 опасность
обморожения
1004.5 1002.4 -31.3 45
03 24.03 СВ 1 50 км 4/0
[Ci ing]
-5.2 -18.9 33 -7 +3 1002.8 1000.9
06 24.03 СЗ 3 50 км 3/0
[Ci fib]
-2.4 -20.6 23 -6 -3 1002.4 1000.5
09 24.03 СЗ 2 50 км 4/3 600 м
[Sc Ci fib]
-5.0 -21.7 26 -8 -8 1003.9 1002.0 -2.2
12 24.03 Ю 2 50 км 1/1 600 м
[Sc]
-13.9 -21.5 53 -19 -19 1005.7 1003.7
15 24.03 Ю 2 50 км ясно -21.8 -25.2 74 -28 -28 1007.0 1004.9
18 24.03 ЮЗ 1 50 км ясно -25.4 -28.4 76 -29 -29 1007.4 1005.3
21 24.03 Ю 1 50 км 3/0
[Ci fib]
-27.3 -30.2 76 -31 -31 опасность
обморожения
1008.0 1005.9 -27.5
00 25.03 СЗ 2 50 км 3/0
[Ci ing]
-15.5 -21.9 58 -21 -15 1008.3 1006.3
03 25.03 С 1 50 км 3/1 600 м
[Sc Ci fib]
-4.6 -18.9 32 -6 +4 1007.5 1005.5
06 25.03 С 1 50 км 3/1 600 м
[Cu hum Ci fib]
+1.0 -16.5 26 0 +5 1006.6 1004.8
09 25.03 ЮВ 2 50 км 4/1 600 м
[Sc Ci fib]
-3.2 -15.9 37 -6 -6 1007.0 1005.0 +1.3
12 25.03 штиль 0 50 км 4/0
[Ci ing]
-13.8 -18.9 65 -14 -14 1008.3 1006.3
21 25.03 ЮЗ 2 50 км 5/3 600 м
[Sc Ci ing]
-26.3 -29.1 77 -33 -33 опасность
обморожения
1009.3 1007.2 -26.3 44
00 26.03 С 1 50 км 4/0
[Ac lent Ci fib]
-13.2 -19.3 60 -16 -11 1009.2 1007.2 -26.3
09 26.03 СЗ 2 50 км 4/3 600 м
[Sc Ac lent Ci fib]
-5.6 -15.6 45 -9 -9 1006.7 1004.8 -1.5
21 26.03 ЮЗ 1 50 км 8/0
[Ac lent Ci fib]
-23.7 -26.3 79 -27 -27 1006.6 1004.5 -23.7 43

 

Местоположение метеостанции Удинск (Хабаровский край, Россия): широта 52.92 долгота 138.80 высота над уровнем моря 15 м.

В архиве по умолчанию представлена погода в Удинске за последнюю неделю. Архивные данные за месяц целиком и за предыдущие месяцы, начиная с января 2011 года, Вы можете получить, выбрав интересующий диапазон дат из раскрывающегося списка и нажав кнопку "Ввод!".


*Определитесь, кто Вы:
робот инопланетянин человек

Внимание! Время в таблицах - всемирное. Для получения местного времени необходимо прибавить поправку, которая равна 10 ч.

Смотрите также архив погоды в соседних городах и на ближайших метеорологических станциях:

Погода в Богородском (Хабаровский край, Россия) (124 км)
Погода в Николаевск-на-Амуре (Хабаровский край, Россия) (130 км)
Погода в Литке (Хабаровский край, Россия) (152 км)
Погода в Мариинском (Хабаровский край, Россия) (159 км)
Погода в Джаоре (Хабаровский край, Россия) (164 км)
Погода в Им. Полины Осипенко (Хабаровский край, Россия) (165 км)
Погода в Байдукове (Хабаровский край, Россия) (179 км)
Погода в Циммермановка (Хабаровский край, Россия) (179 км)
Погода в Бурукане (Хабаровский край, Россия) (188 км)
Погода в Погибях (Сахалинская область, Россия) (205 км)

Пояснения к столбцам:

Ветер - указаны скорость ветра в м/с - средняя за 10 мин, порывы в срок и между сроками (в фигурных скобках) и направление, откуда дует ветер: С - северный, СВ - северо-восточный, В - восточный, ЮВ - юго-восточный, Ю - южный, ЮЗ - юго-западный, З - западный, СЗ - северо-западный.
Видимость - горизонтальная дальность видимости в метрах или километрах. При видимости от 1 до 10 км при отсутствии осадков обычно наблюдается дымка, при ухудшении видимости до 1 км и менее - туман. В сухую погоду видимость может ухудшаться дымом, пылью или мглою.
Явления - указаны атмосферные явления, наблюдавшиеся в срок или в последний час перед сроком; фигурными скобками обозначены явления, наблюдавшиеся между сроками (за 1-3 часа до срока); квадратными скобками обозначены град или гололедные отложения с указанием их диаметра в мм.
Облачность - указаны через наклонную черту общая и нижняя облачность в баллах и высота нижней границы облаков в метрах; квадратными скобками обозначены формы облаков: Ci - перистые, Cs - перисто-слоистые, Cc - перисто-кучевые, Ac - высококучевые, As - высокослоистые, Sc - слоисто-кучевые, Ns - слоисто-дождевые, Cu - кучевые, Cb - кучево-дождевые. Подробнее классификацию облаков см. в Атласе облаков (PDF).
T - Температура воздуха - температура, измеренная на высоте 2 м над землей.
Td - Температура точки росы - температура, при понижении до которой содержащийся в воздухе водяной пар достигнет насыщения.
f - Относительная влажность воздуха - влажноcть воздуха, измеренная на высоте 2 м над землей.
Te - Эффективная температура - температура, которую ощущает одетый по сезону человек в тени. Характеристика душности погоды. При расчете учитывается влияние влажности воздуха и скорости ветра на теплоощущения человека.
Tes - Эффективная температура на солнце - температура, которую ощущает человек, с поправкой на солнечный нагрев. Характеристика знойности погоды. Зависит от высоты солнца над горизонтом, облачности и скорости ветра. Ночью, в пасмурную погоду, а также при ветре 12 м/с и более поправка равна нулю.
P - Атмосферное давление - приведенное к уровню моря атмосферное давление.
Po - Атмосферное давление - измеренное на уровне метеостанции атмосферное давление.
Tmin - Минимальная температура - минимум температуры воздуха на высоте 2 м над землей.
Tmax - Максимальная температура - максимум температуры воздуха на высоте 2 м над землей.
R - Количество осадков - Количество выпавших осадков за период времени, мм. При наведении курсора мыши на число - период времени, за который выпало указанное количество осадков.
R24 - Количество осадков - Количество выпавших осадков за 24 часа, мм.
S - Снежный покров - Высота снежного покрова, см. При наведении курсора мыши на число - состояние снежного покрова и степень покрытия местности в баллах.